Location: Unspecified
(0.0000°N, 0.0000°E)
Time: 05:14:56
(UTC+00:00)

OBJECT AA - Pass Details

Date: 23 May 2026
Orbit: 535 x 552 km, 97.4° (Epoch: 11 June)

Event Time Altitude Azimuth Distance (km) Brightness Sun altitude
Rises 03:44:20 0° 140° (SE) 2,723 ? -30.8°
Reaches altitude 10° 03:47:05 10° 119° (ESE) 1,827 ? -30.1°
Maximum altitude 03:49:39 17° 79° (ENE) 1,446 ? -29.5°
Drops below altitude 10° 03:52:11 10° 38° (NE) 1,821 ? -29.0°
Sets 03:54:55 0° 17° (NNE) 2,710 ? -28.3°
